N986SA KSDL-KOMA

Flight info

Callsign N986SA
Flight time 2h 1m
Altitude 39000
Route YOTES6 JARPA PELDY ZITUG CABET GRI HOWRY3
Aircraft LJ35/M-SGHRWXY/SB1

Departure

Time 2026-04-25 04:20
Airport Scottsdale Airport (KSDL)

Arrival

Time 2026-04-25 06:21
Airport Eppley Airfield (KOMA)
Time Latitude Longitude Altitude Speed Heading
2026-04-25 03:56 33.62092 -111.91483 1461 ft 0 kts 315°
2026-04-25 04:13 33.62100 -111.91501 1458 ft 6 kts 273°
2026-04-25 04:14 33.62063 -111.91530 1461 ft 8 kts 196°
2026-04-25 04:14 33.62016 -111.91499 1462 ft 9 kts 99°
2026-04-25 04:14 33.62056 -111.91437 1459 ft 11 kts 43°
2026-04-25 04:14 33.62117 -111.91368 1462 ft 13 kts 45°
2026-04-25 04:15 33.62179 -111.91296 1463 ft 12 kts 42°
2026-04-25 04:15 33.62239 -111.91227 1464 ft 12 kts 45°
2026-04-25 04:15 33.62302 -111.91157 1470 ft 13 kts 48°
2026-04-25 04:15 33.62361 -111.91085 1473 ft 11 kts 44°
2026-04-25 04:16 33.62413 -111.91026 1480 ft 10 kts 44°
2026-04-25 04:16 33.62481 -111.90949 1483 ft 17 kts 43°
2026-04-25 04:16 33.62565 -111.90850 1484 ft 17 kts 43°
2026-04-25 04:16 33.62649 -111.90754 1486 ft 17 kts 43°
2026-04-25 04:17 33.62740 -111.90649 1490 ft 19 kts 44°
2026-04-25 04:17 33.62835 -111.90539 1491 ft 19 kts 44°
2026-04-25 04:17 33.62932 -111.90425 1492 ft 20 kts 44°
2026-04-25 04:17 33.63029 -111.90314 1502 ft 19 kts 45°
2026-04-25 04:18 33.63115 -111.90217 1506 ft 10 kts 43°
2026-04-25 04:18 33.63138 -111.90173 1507 ft 6 kts 105°
2026-04-25 04:18 33.63110 -111.90132 1508 ft 5 kts 134°
2026-04-25 04:18 33.63094 -111.90125 1508 ft 4 kts 200°
2026-04-25 04:19 33.63041 -111.90187 1506 ft 28 kts 224°
2026-04-25 04:19 33.62721 -111.90556 1492 ft 99 kts 224°
2026-04-25 04:19 33.62074 -111.91302 1461 ft 157 kts 224°
2026-04-25 04:19 33.61192 -111.92344 1651 ft 196 kts 225°
2026-04-25 04:20 33.60209 -111.93561 2434 ft 204 kts 228°
2026-04-25 04:20 33.59474 -111.95009 3141 ft 211 kts 255°
2026-04-25 04:20 33.59632 -111.96790 3770 ft 225 kts 297°
2026-04-25 04:20 33.60771 -111.98022 4862 ft 218 kts 329°
2026-04-25 04:21 33.62129 -111.98638 6211 ft 206 kts 341°
2026-04-25 04:21 33.63567 -111.99103 7034 ft 221 kts 342°
2026-04-25 04:21 33.65080 -111.99477 8096 ft 220 kts 348°
2026-04-25 04:21 33.66606 -111.99646 9107 ft 229 kts 358°
2026-04-25 04:22 33.68287 -111.99450 9695 ft 255 kts
2026-04-25 04:22 33.70039 -111.99084 10729 ft 250 kts
2026-04-25 04:22 33.71764 -111.98698 11688 ft 256 kts
2026-04-25 04:22 33.73603 -111.98256 12198 ft 284 kts
2026-04-25 04:23 33.75661 -111.97756 12600 ft 320 kts
2026-04-25 04:23 33.77932 -111.97012 12820 ft 352 kts 21°
2026-04-25 04:23 33.79969 -111.95336 12918 ft 361 kts 44°
2026-04-25 04:23 33.81464 -111.92894 12968 ft 366 kts 59°
2026-04-25 04:24 33.82921 -111.90379 12962 ft 369 kts 45°
2026-04-25 04:24 33.84855 -111.88351 12972 ft 370 kts 37°
2026-04-25 04:24 33.86880 -111.86423 12985 ft 373 kts 36°
2026-04-25 04:24 33.88919 -111.84475 12988 ft 376 kts 37°
2026-04-25 04:25 33.90955 -111.82492 12977 ft 378 kts 37°
2026-04-25 04:25 33.93006 -111.80503 12976 ft 379 kts 37°
2026-04-25 04:25 33.95053 -111.78509 13340 ft 376 kts 37°
2026-04-25 04:25 33.97107 -111.76535 14334 ft 381 kts 36°
2026-04-25 04:26 33.99177 -111.74525 15321 ft 383 kts 36°
2026-04-25 04:26 34.01254 -111.72500 16355 ft 385 kts 36°
2026-04-25 04:26 34.03339 -111.70461 17432 ft 386 kts 35°
2026-04-25 04:26 34.05418 -111.68413 18480 ft 387 kts 35°
2026-04-25 04:27 34.07506 -111.66365 19460 ft 387 kts 34°
2026-04-25 04:27 34.09593 -111.64317 20485 ft 385 kts 34°
2026-04-25 04:27 34.11672 -111.62274 21297 ft 388 kts 33°
2026-04-25 04:27 34.13759 -111.60253 22054 ft 390 kts 30°
2026-04-25 04:28 34.16133 -111.58734 22702 ft 384 kts 14°
2026-04-25 04:28 34.18619 -111.57606 23572 ft 382 kts 11°
2026-04-25 04:28 34.21158 -111.56713 24215 ft 375 kts 358°
2026-04-25 04:28 34.23732 -111.56500 24898 ft 369 kts 351°
2026-04-25 04:29 34.26305 -111.56472 25525 ft 371 kts 350°
2026-04-25 04:29 34.28898 -111.56472 26181 ft 375 kts 350°
2026-04-25 04:29 34.31519 -111.56488 26902 ft 379 kts 349°
2026-04-25 04:29 34.34170 -111.56516 27624 ft 383 kts 349°
2026-04-25 04:30 34.36854 -111.56484 28459 ft 389 kts 353°
2026-04-25 04:30 34.39569 -111.55803 29276 ft 413 kts 12°
2026-04-25 04:30 34.42141 -111.54057 29941 ft 436 kts 31°
2026-04-25 04:30 34.44282 -111.51364 30482 ft 455 kts 49°
2026-04-25 04:31 34.45833 -111.47955 30907 ft 468 kts 63°
2026-04-25 04:31 34.47145 -111.44321 31395 ft 474 kts 62°
2026-04-25 04:31 34.48577 -111.40706 31862 ft 478 kts 59°
2026-04-25 04:31 34.50151 -111.37139 32334 ft 482 kts 56°
2026-04-25 04:32 34.51272 -111.34737 32643 ft 485 kts 55°
2026-04-25 04:32 34.52970 -111.31193 33210 ft 485 kts 54°
2026-04-25 04:32 34.54683 -111.27674 33870 ft 485 kts 54°
2026-04-25 04:32 34.56388 -111.24202 34396 ft 485 kts 53°
2026-04-25 04:33 34.58117 -111.20686 34953 ft 485 kts 53°
2026-04-25 04:33 34.59867 -111.17137 35511 ft 484 kts 52°
2026-04-25 04:33 34.61726 -111.13761 36083 ft 477 kts 46°
2026-04-25 04:33 34.63747 -111.10643 36894 ft 465 kts 41°
2026-04-25 04:34 34.65874 -111.07799 37482 ft 457 kts 36°
2026-04-25 04:34 34.68136 -111.05110 38034 ft 455 kts 36°
2026-04-25 04:34 34.70372 -111.02395 38561 ft 454 kts 36°
2026-04-25 04:34 34.72597 -110.99680 38945 ft 454 kts 36°
2026-04-25 04:35 34.74858 -110.96932 38996 ft 465 kts 36°
2026-04-25 04:35 34.79535 -110.91254 39050 ft 485 kts 37°
2026-04-25 04:36 34.84388 -110.85346 39098 ft 502 kts 37°
2026-04-25 04:36 34.89388 -110.79248 39137 ft 514 kts 37°
2026-04-25 04:37 34.94484 -110.73031 39172 ft 521 kts 37°
2026-04-25 04:37 34.99607 -110.66777 39138 ft 520 kts 37°
2026-04-25 04:38 35.04709 -110.60552 38986 ft 518 kts 37°
2026-04-25 04:38 35.09795 -110.54323 38982 ft 518 kts 37°
2026-04-25 04:39 35.14873 -110.48088 38984 ft 517 kts 37°
2026-04-25 04:39 35.19941 -110.41854 38978 ft 517 kts 37°
2026-04-25 04:40 35.25008 -110.35614 38999 ft 517 kts 38°
2026-04-25 04:40 35.30069 -110.29359 38961 ft 517 kts 38°
2026-04-25 04:41 35.35123 -110.23102 38961 ft 516 kts 38°
2026-04-25 04:41 35.40167 -110.16850 38963 ft 516 kts 38°
2026-04-25 04:42 35.45214 -110.10581 38957 ft 516 kts 38°
2026-04-25 04:42 35.50246 -110.04318 38960 ft 515 kts 38°
2026-04-25 04:43 35.55270 -109.98057 38967 ft 516 kts 39°
2026-04-25 04:43 35.60307 -109.91764 38957 ft 517 kts 39°
2026-04-25 04:44 35.65350 -109.85453 38950 ft 517 kts 39°
2026-04-25 04:44 35.70218 -109.78904 38965 ft 522 kts 44°
2026-04-25 04:45 35.74641 -109.71768 38951 ft 527 kts 50°
2026-04-25 04:45 35.78844 -109.64452 38942 ft 526 kts 49°
2026-04-25 04:46 35.83084 -109.57107 38938 ft 526 kts 49°
2026-04-25 04:46 35.87319 -109.49736 38964 ft 527 kts 50°
2026-04-25 04:47 35.91551 -109.42339 38957 ft 528 kts 50°
2026-04-25 04:47 35.95779 -109.34924 38951 ft 528 kts 50°
2026-04-25 04:48 36.00003 -109.27500 38952 ft 528 kts 50°
2026-04-25 04:48 36.04221 -109.20067 38963 ft 528 kts 50°
2026-04-25 04:49 36.08435 -109.12633 38958 ft 528 kts 50°
2026-04-25 04:49 36.12640 -109.05201 38956 ft 527 kts 50°
2026-04-25 04:50 36.16835 -108.97769 38957 ft 526 kts 50°
2026-04-25 04:50 36.21028 -108.90324 38854 ft 529 kts 51°
2026-04-25 04:51 36.25229 -108.82846 38792 ft 528 kts 51°
2026-04-25 04:51 36.29416 -108.75373 38791 ft 528 kts 50°
2026-04-25 04:52 36.33601 -108.67893 38776 ft 528 kts 50°
2026-04-25 04:52 36.37777 -108.60411 38772 ft 528 kts 51°
2026-04-25 04:53 36.41951 -108.52916 38773 ft 528 kts 51°
2026-04-25 04:53 36.46117 -108.45420 38778 ft 528 kts 51°
2026-04-25 04:54 36.50284 -108.37905 38792 ft 529 kts 51°
2026-04-25 04:54 36.54454 -108.30366 38790 ft 529 kts 51°
2026-04-25 04:55 36.58615 -108.22825 38868 ft 528 kts 51°
2026-04-25 04:55 36.62772 -108.15278 38877 ft 528 kts 51°
2026-04-25 04:56 36.66921 -108.07733 38880 ft 528 kts 51°
2026-04-25 04:56 36.71065 -108.00179 38860 ft 528 kts 51°
2026-04-25 04:57 36.75206 -107.92610 38840 ft 528 kts 51°
2026-04-25 04:57 36.79338 -107.85038 38813 ft 528 kts 51°
2026-04-25 04:58 36.83469 -107.77453 38816 ft 528 kts 51°
2026-04-25 04:58 36.87507 -107.69868 38859 ft 529 kts 53°
2026-04-25 04:59 36.91444 -107.62106 38858 ft 529 kts 53°
2026-04-25 04:59 36.95393 -107.54360 38857 ft 528 kts 53°
2026-04-25 05:00 36.99361 -107.46612 38847 ft 528 kts 53°
2026-04-25 05:00 37.03320 -107.38868 38830 ft 528 kts 53°
2026-04-25 05:01 37.07267 -107.31128 38806 ft 527 kts 53°
2026-04-25 05:01 37.11211 -107.23381 38822 ft 527 kts 53°
2026-04-25 05:02 37.15147 -107.15633 38822 ft 527 kts 53°
2026-04-25 05:02 37.19074 -107.07887 38824 ft 527 kts 53°
2026-04-25 05:03 37.22997 -107.00129 38845 ft 525 kts 53°
2026-04-25 05:03 37.26901 -106.92388 38988 ft 525 kts 53°
2026-04-25 05:04 37.30803 -106.84637 38862 ft 525 kts 53°
2026-04-25 05:04 37.34698 -106.76880 38876 ft 525 kts 53°
2026-04-25 05:05 37.38589 -106.69117 38863 ft 524 kts 53°
2026-04-25 05:05 37.42455 -106.61379 38854 ft 522 kts 53°
2026-04-25 05:06 37.46281 -106.53702 38880 ft 521 kts 53°
2026-04-25 05:06 37.50128 -106.45972 38926 ft 521 kts 54°
2026-04-25 05:07 37.53971 -106.38230 38938 ft 521 kts 54°
2026-04-25 05:07 37.57815 -106.30475 38945 ft 522 kts 54°
2026-04-25 05:08 37.61652 -106.22705 38948 ft 522 kts 54°
2026-04-25 05:08 37.65483 -106.14929 38927 ft 522 kts 54°
2026-04-25 05:09 37.69310 -106.07145 38896 ft 522 kts 54°
2026-04-25 05:09 37.73134 -105.99347 38872 ft 522 kts 54°
2026-04-25 05:10 37.76958 -105.91530 38818 ft 523 kts 54°
2026-04-25 05:10 37.80781 -105.83700 38802 ft 523 kts 54°
2026-04-25 05:11 37.84596 -105.75865 38825 ft 522 kts 54°
2026-04-25 05:11 37.88396 -105.68042 38814 ft 521 kts 54°
2026-04-25 05:12 37.94057 -105.56339 38811 ft 516 kts 54°
2026-04-25 05:12 37.97796 -105.48586 38780 ft 514 kts 54°
2026-04-25 05:13 38.01530 -105.40859 38799 ft 514 kts 54°
2026-04-25 05:13 38.05253 -105.33120 38790 ft 514 kts 54°
2026-04-25 05:14 38.08973 -105.25363 38801 ft 515 kts 55°
2026-04-25 05:15 38.14555 -105.13686 38780 ft 517 kts 55°
2026-04-25 05:15 38.18283 -105.05862 38731 ft 518 kts 55°
2026-04-25 05:16 38.22007 -104.98027 38730 ft 518 kts 55°
2026-04-25 05:16 38.25702 -104.90232 38720 ft 518 kts 55°
2026-04-25 05:17 38.28821 -104.83642 38722 ft 519 kts 55°
2026-04-25 05:17 38.33145 -104.74484 38746 ft 519 kts 55°
2026-04-25 05:18 38.36864 -104.66585 38756 ft 519 kts 55°
2026-04-25 05:18 38.39972 -104.59967 38760 ft 519 kts 55°
2026-04-25 05:19 38.43680 -104.52054 38764 ft 520 kts 56°
2026-04-25 05:19 38.47394 -104.44139 38747 ft 520 kts 55°
2026-04-25 05:20 38.51131 -104.36325 38721 ft 519 kts 55°
2026-04-25 05:20 38.54898 -104.28456 38691 ft 519 kts 55°
2026-04-25 05:21 38.58654 -104.20572 38679 ft 519 kts 55°
2026-04-25 05:21 38.62400 -104.12681 38665 ft 520 kts 55°
2026-04-25 05:22 38.66142 -104.04773 38661 ft 520 kts 55°
2026-04-25 05:22 38.69880 -103.96853 38662 ft 519 kts 55°
2026-04-25 05:23 38.73612 -103.88927 38656 ft 520 kts 55°
2026-04-25 05:23 38.77331 -103.81007 38667 ft 517 kts 55°
2026-04-25 05:24 38.81027 -103.73114 38647 ft 516 kts 55°
2026-04-25 05:24 38.84713 -103.65228 38646 ft 515 kts 55°
2026-04-25 05:25 38.88390 -103.57341 38639 ft 515 kts 56°
2026-04-25 05:25 38.92034 -103.49504 38620 ft 515 kts 56°
2026-04-25 05:26 38.95686 -103.41629 38629 ft 512 kts 56°
2026-04-25 05:26 38.99324 -103.33767 38633 ft 511 kts 56°
2026-04-25 05:27 39.02950 -103.25910 38631 ft 511 kts 56°
2026-04-25 05:27 39.06574 -103.18041 38651 ft 510 kts 56°
2026-04-25 05:28 39.10179 -103.10189 38643 ft 509 kts 56°
2026-04-25 05:28 39.13767 -103.02354 38644 ft 507 kts 56°
2026-04-25 05:29 39.17343 -102.94530 38643 ft 506 kts 56°
2026-04-25 05:29 39.20911 -102.86705 38654 ft 506 kts 56°
2026-04-25 05:30 39.24476 -102.78867 38658 ft 506 kts 56°
2026-04-25 05:30 39.28032 -102.71027 38671 ft 506 kts 56°
2026-04-25 05:31 39.31585 -102.63173 38695 ft 506 kts 56°
2026-04-25 05:31 39.35133 -102.55312 38737 ft 507 kts 56°
2026-04-25 05:32 39.38675 -102.47444 38669 ft 506 kts 56°
2026-04-25 05:32 39.42210 -102.39572 38661 ft 506 kts 57°
2026-04-25 05:33 39.45733 -102.31706 38678 ft 505 kts 57°
2026-04-25 05:33 39.49245 -102.23843 38671 ft 505 kts 57°
2026-04-25 05:34 39.52730 -102.16024 38675 ft 504 kts 57°
2026-04-25 05:34 39.56254 -102.08097 38696 ft 504 kts 57°
2026-04-25 05:35 39.59728 -102.00272 38696 ft 503 kts 58°
2026-04-25 05:35 39.63020 -101.92257 38716 ft 503 kts 61°
2026-04-25 05:36 39.66185 -101.84141 38746 ft 505 kts 61°
2026-04-25 05:36 39.69373 -101.76013 38735 ft 506 kts 60°
2026-04-25 05:37 39.72578 -101.67884 38728 ft 506 kts 60°
2026-04-25 05:37 39.75780 -101.59773 38720 ft 503 kts 61°
2026-04-25 05:38 39.78962 -101.51690 38711 ft 502 kts 61°
2026-04-25 05:38 39.82138 -101.43606 38715 ft 502 kts 61°
2026-04-25 05:39 39.85307 -101.35518 38712 ft 502 kts 61°
2026-04-25 05:39 39.88470 -101.27431 38710 ft 501 kts 62°
2026-04-25 05:40 39.91624 -101.19339 38789 ft 501 kts 62°
2026-04-25 05:40 39.94768 -101.11252 38817 ft 501 kts 62°
2026-04-25 05:41 39.97914 -101.03137 38797 ft 502 kts 62°
2026-04-25 05:41 40.01055 -100.95014 38782 ft 502 kts 62°
2026-04-25 05:42 40.04191 -100.86878 38765 ft 502 kts 62°
2026-04-25 05:42 40.07323 -100.78734 38754 ft 502 kts 62°
2026-04-25 05:43 40.10449 -100.70583 38757 ft 502 kts 63°
2026-04-25 05:43 40.13571 -100.62421 38758 ft 502 kts 63°
2026-04-25 05:44 40.16686 -100.54252 38759 ft 502 kts 63°
2026-04-25 05:44 40.19788 -100.46096 38761 ft 501 kts 63°
2026-04-25 05:45 40.22885 -100.37930 38765 ft 501 kts 63°
2026-04-25 05:45 40.25976 -100.29756 38767 ft 501 kts 63°
2026-04-25 05:46 40.29059 -100.21583 38768 ft 501 kts 63°
2026-04-25 05:46 40.32143 -100.13378 38773 ft 503 kts 63°
2026-04-25 05:47 40.35235 -100.05138 38769 ft 504 kts 63°
2026-04-25 05:47 40.38300 -99.96944 38776 ft 504 kts 63°
2026-04-25 05:48 40.41404 -99.88621 38783 ft 504 kts 63°
2026-04-25 05:48 40.44460 -99.80403 38808 ft 506 kts 63°
2026-04-25 05:49 40.47554 -99.72061 38805 ft 509 kts 63°
2026-04-25 05:49 40.50651 -99.63686 38823 ft 510 kts 63°
2026-04-25 05:50 40.53756 -99.55265 38822 ft 512 kts 63°
2026-04-25 05:50 40.56858 -99.46827 38823 ft 513 kts 63°
2026-04-25 05:51 40.59957 -99.38367 38828 ft 514 kts 63°
2026-04-25 05:51 40.62616 -99.29629 38826 ft 516 kts 72°
2026-04-25 05:52 40.64592 -99.20545 38884 ft 516 kts 74°
2026-04-25 05:52 40.66543 -99.11438 38894 ft 517 kts 74°
2026-04-25 05:53 40.68535 -99.02377 38887 ft 513 kts 73°
2026-04-25 05:53 40.70537 -98.93378 38893 ft 511 kts 73°
2026-04-25 05:54 40.72538 -98.84394 38890 ft 511 kts 73°
2026-04-25 05:54 40.75529 -98.70919 38883 ft 510 kts 74°
2026-04-25 05:55 40.77471 -98.62007 38751 ft 503 kts 74°
2026-04-25 05:55 40.78434 -98.57574 38264 ft 502 kts 74°
2026-04-25 05:55 40.79398 -98.53144 37568 ft 502 kts 73°
2026-04-25 05:56 40.80363 -98.48717 36865 ft 502 kts 73°
2026-04-25 05:56 40.81316 -98.44344 36170 ft 502 kts 73°
2026-04-25 05:56 40.82277 -98.39922 35488 ft 502 kts 72°
2026-04-25 05:56 40.83241 -98.35490 34850 ft 501 kts 72°
2026-04-25 05:57 40.84201 -98.31074 34144 ft 500 kts 72°
2026-04-25 05:57 40.85158 -98.26668 33313 ft 499 kts 71°
2026-04-25 05:57 40.86115 -98.22259 32416 ft 499 kts 72°
2026-04-25 05:57 40.87069 -98.17851 31509 ft 499 kts 72°
2026-04-25 05:58 40.88018 -98.13450 30590 ft 499 kts 72°
2026-04-25 05:58 40.88965 -98.09042 29581 ft 499 kts 72°
2026-04-25 05:58 40.89913 -98.04624 28407 ft 500 kts 72°
2026-04-25 05:58 40.90860 -98.00200 27257 ft 500 kts 73°
2026-04-25 05:59 40.91806 -97.95775 26182 ft 502 kts 74°
2026-04-25 05:59 40.92736 -97.91390 25446 ft 482 kts 74°
2026-04-25 05:59 40.93620 -97.87242 24721 ft 458 kts 74°
2026-04-25 05:59 40.94465 -97.83284 24003 ft 437 kts 75°
2026-04-25 06:00 40.95272 -97.79496 23120 ft 424 kts 75°
2026-04-25 06:00 40.96066 -97.75759 22046 ft 419 kts 75°
2026-04-25 06:00 40.96847 -97.72079 21152 ft 413 kts 75°
2026-04-25 06:00 40.97620 -97.68439 20383 ft 408 kts 75°
2026-04-25 06:01 40.98382 -97.64849 19733 ft 403 kts 75°
2026-04-25 06:01 40.99134 -97.61295 19192 ft 400 kts 75°
2026-04-25 06:01 40.99884 -97.57757 18985 ft 397 kts 75°
2026-04-25 06:01 41.00625 -97.54253 18777 ft 395 kts 75°
2026-04-25 06:02 41.01362 -97.50754 18551 ft 394 kts 76°
2026-04-25 06:02 41.02096 -97.47219 18317 ft 403 kts 76°
2026-04-25 06:02 41.02840 -97.43596 18065 ft 411 kts 76°
2026-04-25 06:02 41.03595 -97.39909 17802 ft 417 kts 76°
2026-04-25 06:03 41.04359 -97.36174 17541 ft 422 kts 76°
2026-04-25 06:03 41.05131 -97.32407 17286 ft 425 kts 76°
2026-04-25 06:03 41.05910 -97.28615 17030 ft 428 kts 76°
2026-04-25 06:03 41.06691 -97.24806 16775 ft 429 kts 76°
2026-04-25 06:04 41.07475 -97.20986 16520 ft 430 kts 76°
2026-04-25 06:04 41.08262 -97.17153 16269 ft 431 kts 76°
2026-04-25 06:04 41.09045 -97.13324 16024 ft 431 kts 76°
2026-04-25 06:04 41.09466 -97.09408 15769 ft 429 kts 89°
2026-04-25 06:05 41.09517 -97.05453 15527 ft 429 kts 91°
2026-04-25 06:05 41.09503 -97.02841 15367 ft 429 kts 92°
2026-04-25 06:05 41.09454 -96.98893 15125 ft 428 kts 92°
2026-04-25 06:05 41.09747 -96.94968 14866 ft 430 kts 78°
2026-04-25 06:06 41.10679 -96.91212 14645 ft 429 kts 66°
2026-04-25 06:06 41.11939 -96.87623 14402 ft 429 kts 64°
2026-04-25 06:06 41.13267 -96.84082 14167 ft 428 kts 63°
2026-04-25 06:06 41.14612 -96.80562 13935 ft 428 kts 62°
2026-04-25 06:07 41.15968 -96.77050 13708 ft 428 kts 62°
2026-04-25 06:07 41.17333 -96.73542 13445 ft 427 kts 62°
2026-04-25 06:07 41.18701 -96.70041 13182 ft 427 kts 62°
2026-04-25 06:07 41.20068 -96.66552 12920 ft 426 kts 62°
2026-04-25 06:08 41.21438 -96.63063 12659 ft 426 kts 62°
2026-04-25 06:08 41.22809 -96.59582 12400 ft 425 kts 62°
2026-04-25 06:08 41.24180 -96.56107 12150 ft 424 kts 62°
2026-04-25 06:08 41.25553 -96.52636 11896 ft 424 kts 62°
2026-04-25 06:09 41.26922 -96.49180 11653 ft 423 kts 62°
2026-04-25 06:09 41.28294 -96.45723 11402 ft 422 kts 62°
2026-04-25 06:09 41.29665 -96.42273 11157 ft 421 kts 62°
2026-04-25 06:09 41.30972 -96.38992 10911 ft 380 kts 62°
2026-04-25 06:10 41.32156 -96.36027 10654 ft 346 kts 62°
2026-04-25 06:10 41.33244 -96.33314 10390 ft 320 kts 62°
2026-04-25 06:10 41.34265 -96.30781 10147 ft 303 kts 62°
2026-04-25 06:10 41.35244 -96.28358 10045 ft 295 kts 62°
2026-04-25 06:11 41.36479 -96.26212 9997 ft 291 kts 38°
2026-04-25 06:11 41.38178 -96.24796 9988 ft 286 kts 26°
2026-04-25 06:11 41.39878 -96.23440 9983 ft 287 kts 37°
2026-04-25 06:11 41.41410 -96.21663 9988 ft 299 kts 46°
2026-04-25 06:12 41.42800 -96.19516 10000 ft 312 kts 51°
2026-04-25 06:12 41.44134 -96.17284 9771 ft 306 kts 52°
2026-04-25 06:12 41.45439 -96.15053 9394 ft 302 kts 52°
2026-04-25 06:12 41.46724 -96.12860 8694 ft 298 kts 53°
2026-04-25 06:13 41.48000 -96.10707 8038 ft 294 kts 53°
2026-04-25 06:13 41.49272 -96.08602 7394 ft 289 kts 53°
2026-04-25 06:13 41.50529 -96.06550 6811 ft 282 kts 53°
2026-04-25 06:14 41.52984 -96.02618 5592 ft 273 kts 53°
2026-04-25 06:14 41.54197 -96.00700 4986 ft 268 kts 52°
2026-04-25 06:14 41.55310 -95.98757 4485 ft 256 kts 66°
2026-04-25 06:14 41.55661 -95.96530 4260 ft 243 kts 97°
2026-04-25 06:15 41.55089 -95.94494 4171 ft 233 kts 129°
2026-04-25 06:15 41.53808 -95.93280 4137 ft 226 kts 162°
2026-04-25 06:15 41.52265 -95.93270 4119 ft 225 kts 196°
2026-04-25 06:15 41.50981 -95.94433 4109 ft 226 kts 224°
2026-04-25 06:16 41.49995 -95.96019 4090 ft 218 kts 229°
2026-04-25 06:16 41.49107 -95.97619 4080 ft 211 kts 230°
2026-04-25 06:16 41.48247 -95.99236 4092 ft 216 kts 231°
2026-04-25 06:16 41.47376 -96.00897 4096 ft 221 kts 231°
2026-04-25 06:17 41.46443 -96.02534 4089 ft 222 kts 218°
2026-04-25 06:17 41.45093 -96.03375 4103 ft 214 kts 184°
2026-04-25 06:17 41.43682 -96.02983 4111 ft 208 kts 148°
2026-04-25 06:17 41.42543 -96.01841 4137 ft 199 kts 140°
2026-04-25 06:18 41.41505 -96.00655 3812 ft 197 kts 139°
2026-04-25 06:18 41.40481 -95.99454 3474 ft 195 kts 139°
2026-04-25 06:18 41.39490 -95.98303 3311 ft 184 kts 141°
2026-04-25 06:18 41.38453 -95.97297 2944 ft 182 kts 147°
2026-04-25 06:19 41.37407 -95.96364 2529 ft 180 kts 146°
2026-04-25 06:19 41.36382 -95.95393 2059 ft 182 kts 142°
2026-04-25 06:19 41.35419 -95.94430 2025 ft 161 kts 143°
2026-04-25 06:19 41.34531 -95.93589 1813 ft 148 kts 144°
2026-04-25 06:20 41.33763 -95.92879 1597 ft 130 kts 144°
2026-04-25 06:20 41.32974 -95.92132 1427 ft 148 kts 143°
2026-04-25 06:20 41.32129 -95.91320 1216 ft 151 kts 143°
2026-04-25 06:20 41.31276 -95.90516 1005 ft 148 kts 143°
2026-04-25 06:21 41.30584 -95.89850 979 ft 91 kts 144°
2026-04-25 06:21 41.30206 -95.89490 979 ft 39 kts 144°
2026-04-25 06:21 41.30037 -95.89330 976 ft 29 kts 144°
2026-04-25 06:21 41.29868 -95.89170 980 ft 30 kts 145°
2026-04-25 06:22 41.29762 -95.89080 985 ft 4 kts 214°